Flag for Canada Past Weather in Conception Bay South, Newfoundland and Labrador, Canada — Yesterday and Last 2 Weeks

Now
68 °F

Partly sunny.


Feels Like: 68 °F
Forecast: 50 / 67 °F
Wind: 12 mph from West

Location: St. John's

Current Time: Jun 26, 2016 at 11:35:49 AM

Latest Report: Jun 26, 2016 at 10:30 AM


Visibility: 15 mi

Pressure: 30.33 "Hg

Humidity: 35%

Dew Point: 39 °F

Location of Conception Bay SouthLocation

Past Weather in Conception Bay South — Graph

°F

Conception Bay South Temperature Yesterday

Maximum temperature yesterday: 70 °F (at 2:30 PM)
Minimum temperature yesterday: 50 °F (at 4:30 AM)
Average temperature yesterday: 59 °F

High & Low Weather Summary for the Past Weeks

 TemperatureHumidityPressure
High75 °F (Jun 20, 12:30 PM)100% (Jun 13, 6:30 AM)30.33 "Hg (Jun 13, 6:30 AM)
Low37 °F (Jun 18, 10:30 PM)35% (Jun 26, 10:30 AM)29.49 "Hg (Jun 17, 1:30 AM)
Average54 °F81%29.88 "Hg
* Reported Jun 11 10:30 AM — Jun 26 10:30 AM, Conception Bay South, Weather by CustomWeather, © 2016

Note: Actual official high and low records may vary slightly from our data, if they occured in-between our weather recording intervals... More about our weather records

Advertising

Conception Bay South Weather History for the Previous 24 Hours

Scroll right to see more
 ConditionsComfort  
Time TempWeatherWind HumidityBarometerVisibility
10:30 AM
Sun, Jun 26
68 °FPartly sunny.12 mph35%30.33 "Hg15 mi
9:30 AM66 °FPartly sunny.13 mph37%30.32 "Hg15 mi
8:30 AM64 °FPartly sunny.10 mph46%30.31 "Hg15 mi
7:30 AM59 °FPartly sunny.12 mph55%30.31 "Hg15 mi
6:30 AM54 °FPartly sunny.14 mph67%30.30 "Hg15 mi
5:30 AM54 °FPartly cloudy.13 mph67%30.29 "Hg15 mi
4:30 AM54 °FPartly cloudy.12 mph63%30.29 "Hg15 mi
3:30 AM54 °FPassing clouds.13 mph67%30.28 "Hg15 mi
2:30 AM54 °FPassing clouds.10 mph72%30.28 "Hg15 mi
1:30 AM55 °FPassing clouds.12 mph72%30.29 "Hg15 mi
12:30 AM57 °FClear.12 mph67%30.29 "Hg15 mi
11:30 PM
Sat, Jun 25
57 °FPassing clouds.13 mph63%30.29 "Hg15 mi
10:30 PM59 °FPassing clouds.12 mph63%30.30 "Hg15 mi
9:30 PM59 °FPartly sunny.6 mph59%30.29 "Hg15 mi
8:30 PM64 °FPartly sunny.10 mph52%30.29 "Hg15 mi
7:30 PM68 °FPartly sunny.8 mph43%30.26 "Hg15 mi
6:30 PM70 °FBroken clouds.10 mph40%30.25 "Hg15 mi
5:30 PM68 °FPartly sunny.8 mph53%30.26 "Hg15 mi
4:30 PM68 °FScattered clouds.12 mph56%30.24 "Hg15 mi
3:30 PM68 °FPassing clouds.8 mph53%30.25 "Hg15 mi
2:30 PM70 °FPassing clouds.12 mph40%30.25 "Hg15 mi
1:30 PM68 °FPassing clouds.9 mph43%30.26 "Hg15 mi
12:30 PM66 °FPassing clouds.8 mph52%30.25 "Hg15 mi
11:30 AM64 °FPassing clouds.9 mph56%30.24 "Hg15 mi
Weather by CustomWeather, © 2016

See weather overviewHow to use our weather pages